User: anonymous   Login
Location: Cactus School
(34.5700°N, 118.0931°W)
Time: 18:04:22
(UTC-08:00)
Language:

Tiangong 1 - Orbit

View from above orbital plane
View from above orbital plane
View from above satellite
View from above satellite

Ground track
Ground track

The orbit data is extracted from the following two-line orbital elements,

1 37820U 11053A   17327.39327854  .00074249  10297-4  21512-3 0  9994
2 37820  42.7544 297.1578 0018115 143.2717 349.4877 15.92376594353226
Epoch (UTC): 23 November 2017 09:26:19
Eccentricity: 0.0018115
inclination: 42.7544°
perigee height: 283 km
apogee height: 308 km
right ascension of ascending node: 297.1578°
argument of perigee: 143.2717°
revolutions per day: 15.92376594
mean anomaly at epoch: 349.4877°
orbit number at epoch: 35322

The dashed part of the orbit path shows where the satellite is in the earth's shadow,  

DLR